Погода в Павлово

Россия / Орловская область     52°21′50″N   35°48′12″E
темп.,
°C
ветер,
м/с
пор.,
м/с
влажн.,
%
обл.,
%
осадки,
мм/ч
давл.,
гПа
погр.,
м
28 ноября, вс
вс2800:00+5ю5129785 0.0 1003356
03:00+5ююз4119784 0.0 1004305
06:00+4юз379834 0.0 1004153
09:00+2юз35941 0.0 100784
12:00+5юз24778 0.0 1007224
15:00+5ю227910 0.0 100864
18:00+4юв359576 0.0 100896
21:00+3юв41096100 0.0 1008227
29 ноября, пн
пн2900:00+4юв41196100 0.0 1007245
03:00+4вюв4996100 0.0 1005182
06:00+5вюв41098100 0.1 1002217
09:00+5в51098100 1.3 999368
12:00+7ю41099100 0.0 997392
15:00+8ю41096100 0.1 995353
18:00+8ююв61294100 0.0 992513
21:00+7вюв61296100 0.4 987469
30 ноября, вт
вт3000:00+8вюв4997100 7.6 979295
03:00+8юз91495100 11.6 978837
06:00+1зюз132196100 7.6 982882
09:00+1зюз132197100 13.9 9871097
12:00+1зюз121982100 0.3 9901127
15:00+1зюз101681100 0.3 9911222
18:00+1юз9157796 0.1 9921265
21:000зюз8138455 0.4 992947
1 декабря, ср
ср100:00−1зюз8128399 0.1 9921005
03:00−2зюз8138899 0.3 9931056
06:00−2з81493100 0.3 9931125
09:00−3з81293100 0.8 9961013
12:00−2з81183100 0.6 9971063
15:00−3з8118293 0.7 999964
18:00−4з6128677 0.0 1001679
21:00−5з5118956 0.0 1002537
2 декабря, чт
чт200:00−5з4109284 0.0 1004425
03:00−6зюз379495 0.0 1005218
06:00−5ююз498966 0.0 1006302
09:00−2ююз61386100 0.0 1005583
12:00−1ююз81697100 1.3 1003690
15:00+1юз71698100 2.3 1003622
18:00+1юз61488100 0.0 1004460
21:00+1юз6148986 0.0 1005424